| time (UTC) | temp F | wind direction | speed knots | gust knots | rain 1hr in | rain 24hr in | rain mn in | humidity % | barometer mb |
| 20260506211749 | 57 | 196 | 1.7 | 4.3 | 0.02 | 0.25 | 0.25 | 99 | 1005.4 |
| 20260506211246 | 57 | 183 | 2.6 | 7.8 | 0.02 | 0.25 | 0.25 | 99 | 1005.5 |
| 20260506210743 | 57 | 124 | 2.6 | 8.7 | 0.07 | 0.25 | 0.25 | 99 | 1005.5 |
| 20260506210239 | 57 | 193 | 4.3 | 4.3 | 0.09 | 0.24 | 0.24 | 99 | 1005.6 |
| 20260506205736 | 57 | 217 | 2.6 | 7.8 | 0.09 | 0.24 | 0.24 | 99 | 1005.6 |
| 20260506205232 | 57 | 154 | 2.6 | 7.8 | 0.09 | 0.22 | 0.22 | 99 | 1005.8 |
| 20260506204729 | 57 | 199 | 3.5 | 5.2 | 0.19 | 0.22 | 0.22 | 99 | 1005.7 |
| 20260506204227 | 57 | 148 | 2.6 | 9.6 | 0.21 | 0.20 | 0.20 | 99 | 1005.9 |
| 20260506203724 | 57 | 187 | 3.5 | 4.3 | 0.17 | 0.19 | 0.19 | 99 | 1005.9 |
| 20260506203221 | 57 | 199 | 4.3 | 7.0 | 0.02 | 0.17 | 0.17 | 99 | 1005.9 |
| 20260506202719 | 57 | 215 | 3.5 | 10.4 | 0.00 | 0.16 | 0.16 | 99 | 1005.9 |
| 20260506202215 | 57 | 184 | 4.3 | 6.1 | 0.00 | 0.16 | 0.16 | 99 | 1005.8 |
| 20260506201712 | 57 | 204 | 5.2 | 10.4 | 0.02 | 0.16 | 0.16 | 99 | 1005.9 |
| 20260506201208 | 57 | 191 | 4.3 | 10.4 | 0.05 | 0.16 | 0.16 | 99 | 1005.9 |
| 20260506200700 | 57 | 133 | 3.5 | 9.6 | 0.05 | 0.16 | 0.16 | 99 | 1006.1 |
| 20260506200156 | 57 | 187 | 4.3 | 13.9 | 0.02 | 0.15 | 0.15 | 99 | 1005.8 |
| 20260506195652 | 57 | 192 | 3.5 | 9.6 | 0.00 | 0.15 | 0.15 | 99 | 1006.0 |
| 20260506195148 | 57 | 217 | 3.5 | 7.0 | 0.05 | 0.15 | 0.15 | 99 | 1006.2 |
| 20260506194641 | 57 | 198 | 4.3 | 10.4 | 0.02 | 0.15 | 0.15 | 99 | 1006.0 |
| 20260506194137 | 57 | 181 | 7.8 | 8.7 | 0.00 | 0.14 | 0.14 | 99 | 1006.2 |
| 20260506193635 | 57 | 42 | 1.7 | 7.8 | 0.00 | 0.14 | 0.14 | 99 | 1006.1 |
| 20260506193132 | 57 | 219 | 2.6 | 13.0 | 0.00 | 0.14 | 0.14 | 99 | 1006.5 |
| 20260506192629 | 57 | 174 | 4.3 | 10.4 | 0.00 | 0.14 | 0.14 | 99 | 1006.7 |
| 20260506192125 | 57 | 202 | 2.6 | 14.8 | 0.00 | 0.14 | 0.14 | 99 | 1006.3 |
| 20260506191621 | 57 | 209 | 2.6 | 7.8 | 0.00 | 0.14 | 0.14 | 99 | 1006.8 |
| 20260506191117 | 57 | 152 | 3.5 | 13.0 | 0.02 | 0.14 | 0.14 | 99 | 1006.7 |
| 20260506190615 | 57 | 285 | 2.6 | 9.6 | 0.05 | 0.14 | 0.14 | 99 | 1006.5 |
| 20260506190112 | 57 | 172 | 4.3 | 11.3 | 0.02 | 0.13 | 0.13 | 99 | 1006.6 |
| 20260506185609 | 57 | 166 | 11.3 | 13.0 | 0.02 | 0.13 | 0.13 | 99 | 1006.8 |
| 20260506185105 | 57 | 196 | 5.2 | 7.0 | 0.02 | 0.13 | 0.13 | 99 | 1006.9 |
| 20260506184603 | 57 | 149 | 4.3 | 7.8 | 0.07 | 0.13 | 0.13 | 99 | 1007.0 |
| 20260506184100 | 57 | 153 | 5.2 | 7.0 | 0.05 | 0.13 | 0.13 | 99 | 1007.1 |
| 20260506183556 | 57 | 194 | 7.0 | 9.6 | 0.02 | 0.12 | 0.12 | 98 | 1006.8 |
| 20260506183052 | 57 | 121 | 2.6 | 9.6 | 0.02 | 0.11 | 0.11 | 98 | 1006.7 |
| 20260506182550 | 57 | 173 | 4.3 | 7.0 | 0.07 | 0.11 | 0.11 | 98 | 1006.7 |
| 20260506182047 | 57 | 162 | 4.3 | 6.1 | 0.07 | 0.11 | 0.11 | 98 | 1006.7 |
| 20260506181545 | 57 | 136 | 2.6 | 9.6 | 0.07 | 0.10 | 0.10 | 97 | 1006.9 |
| 20260506181041 | 57 | 129 | 4.3 | 8.7 | 0.09 | 0.09 | 0.09 | 97 | 1007.0 |
| 20260506180538 | 57 | 139 | 7.0 | 9.6 | 0.12 | 0.09 | 0.09 | 97 | 1007.2 |
| 20260506180035 | 58 | 119 | 3.5 | 15.6 | 0.17 | 0.08 | 0.08 | 96 | 1007.1 |
| 20260506175531 | 58 | 104 | 1.7 | 7.0 | 0.17 | 0.06 | 0.06 | 96 | 1007.4 |
| 20260506175028 | 59 | 162 | 1.7 | 11.3 | 0.12 | 0.04 | 0.04 | 95 | 1007.4 |
| 20260506174527 | 59 | 153 | 1.7 | 7.0 | 0.07 | 0.03 | 0.03 | 94 | 1007.5 |
| 20260506174022 | 59 | 196 | 3.5 | 7.8 | 0.05 | 0.02 | 0.02 | 94 | 1007.6 |
| 20260506173520 | 59 | 162 | 2.6 | 7.8 | 0.05 | 0.02 | 0.02 | 93 | 1008.0 |
| 20260506173017 | 60 | 183 | 2.6 | 7.0 | 0.05 | 0.02 | 0.02 | 92 | 1007.9 |
| 20260506172514 | 60 | 188 | 6.1 | 8.7 | 0.05 | 0.01 | 0.01 | 91 | 1007.9 |
| 20260506172010 | 60 | 183 | 5.2 | 13.0 | 0.05 | 0.01 | 0.01 | 90 | 1007.8 |
| 20260506171508 | 61 | 228 | 13.0 | 13.0 | 0.02 | 0.00 | 0.00 | 87 | 1008.1 |
| 20260506171005 | 61 | 180 | 3.5 | 8.7 | 0.00 | 0.00 | 0.00 | 86 | 1008.1 |
| 20260506170501 | 62 | 216 | 4.3 | 11.3 | 0.00 | 0.00 | 0.00 | 84 | 1008.2 |
| 20260506165954 | 63 | 200 | 6.1 | 10.4 | 0.00 | 0.00 | 0.00 | 82 | 1008.1 |
| 20260506165452 | 63 | 177 | 6.1 | 16.5 | 0.00 | 0.00 | 0.00 | 80 | 1008.2 |
| 20260506164948 | 64 | 204 | 5.2 | 8.7 | 0.00 | 0.00 | 0.00 | 79 | 1007.8 |
| 20260506164445 | 65 | 207 | 6.1 | 13.9 | 0.00 | 0.00 | 0.00 | 77 | 1008.0 |
| 20260506163943 | 65 | 205 | 7.8 | 15.6 | 0.00 | 0.00 | 0.00 | 76 | 1007.9 |
| 20260506163438 | 65 | 219 | 3.5 | 17.4 | 0.00 | 0.00 | 0.00 | 76 | 1008.0 |
| 20260506162932 | 66 | 166 | 6.1 | 12.2 | 0.00 | 0.00 | 0.00 | 76 | 1007.6 |
| 20260506162430 | 66 | 216 | 2.6 | 8.7 | 0.00 | 0.00 | 0.00 | 76 | 1007.8 |
| 20260506161922 | 65 | 176 | 6.1 | 13.0 | 0.00 | 0.00 | 0.00 | 76 | 1007.9 |
| 20260506161420 | 66 | 176 | 7.8 | 11.3 | 0.00 | 0.00 | 0.00 | 75 | 1008.0 |
| 20260506160917 | 66 | 196 | 6.1 | 11.3 | 0.00 | 0.00 | 0.00 | 74 | 1008.2 |
| 20260506160414 | 66 | 246 | 6.1 | 13.0 | 0.00 | 0.00 | 0.00 | 74 | 1008.2 |
| 20260506155912 | 66 | 131 | 4.3 | 9.6 | 0.00 | 0.00 | 0.00 | 74 | 1008.3 |
| 20260506155409 | 66 | 262 | 7.0 | 18.2 | 0.00 | 0.00 | 0.00 | 74 | 1008.3 |
| 20260506153531 | 67 | 193 | 5.2 | 7.8 | 0.00 | 0.00 | 0.00 | 72 | 1008.2 |
| 20260506153028 | 67 | 224 | 6.1 | 14.8 | 0.00 | 0.00 | 0.00 | 73 | 1008.1 |
| 20260506152525 | 67 | 182 | 15.6 | 20.9 | 0.00 | 0.00 | 0.00 | 71 | 1008.2 |
| 20260506152023 | 67 | 226 | 5.2 | 13.9 | 0.00 | 0.00 | 0.00 | 73 | 1008.2 |
| 20260506151521 | 67 | 225 | 6.1 | 9.6 | 0.00 | 0.00 | 0.00 | 72 | 1008.3 |
| 20260506151018 | 67 | 190 | 2.6 | 17.4 | 0.00 | 0.00 | 0.00 | 73 | 1008.4 |
| 20260506150514 | 68 | 210 | 7.8 | 10.4 | 0.00 | 0.00 | 0.00 | 71 | 1008.3 |
| 20260506150011 | 68 | 155 | 7.8 | 9.6 | 0.00 | 0.00 | 0.00 | 71 | 1008.3 |
| 20260506145507 | 68 | 212 | 4.3 | 7.8 | 0.00 | 0.00 | 0.00 | 72 | 1008.6 |
| 20260506145005 | 67 | 212 | 8.7 | 13.0 | 0.00 | 0.00 | 0.00 | 72 | 1008.7 |
| 20260506144502 | 68 | 201 | 8.7 | 17.4 | 0.00 | 0.00 | 0.00 | 70 | 1008.5 |
| 20260506143959 | 68 | 218 | 5.2 | 12.2 | 0.00 | 0.00 | 0.00 | 71 | 1008.4 |
| 20260506143456 | 68 | 262 | 5.2 | 10.4 | 0.00 | 0.00 | 0.00 | 71 | 1008.5 |
| 20260506142955 | 68 | 214 | 8.7 | 9.6 | 0.00 | 0.00 | 0.00 | 72 | 1008.6 |
| 20260506142452 | 67 | 211 | 6.1 | 13.9 | 0.00 | 0.00 | 0.00 | 73 | 1008.6 |
| 20260506141950 | 67 | 248 | 7.8 | 11.3 | 0.00 | 0.00 | 0.00 | 74 | 1008.7 |
| 20260506141448 | 66 | 105 | 1.7 | 12.2 | 0.00 | 0.00 | 0.00 | 76 | 1008.8 |
| 20260506140946 | 65 | 245 | 1.7 | 11.3 | 0.00 | 0.00 | 0.00 | 77 | 1008.8 |
| 20260506140443 | 65 | 231 | 2.6 | 9.6 | 0.00 | 0.00 | 0.00 | 77 | 1008.7 |
| 20260506135939 | 64 | 191 | 6.1 | 11.3 | 0.00 | 0.00 | 0.00 | 78 | 1008.7 |
| 20260506135437 | 64 | 200 | 4.3 | 13.0 | 0.00 | 0.00 | 0.00 | 79 | 1008.7 |
| 20260506134933 | 64 | 234 | 3.5 | 9.6 | 0.00 | 0.00 | 0.00 | 79 | 1008.3 |
| 20260506134429 | 64 | 225 | 6.1 | 11.3 | 0.00 | 0.00 | 0.00 | 79 | 1008.4 |
| 20260506133926 | 64 | 136 | 4.3 | 11.3 | 0.00 | 0.00 | 0.00 | 80 | 1008.4 |
| 20260506133423 | 64 | 214 | 3.5 | 9.6 | 0.00 | 0.00 | 0.00 | 80 | 1008.4 |
| 20260506132920 | 64 | 282 | 1.7 | 13.0 | 0.00 | 0.00 | 0.00 | 81 | 1008.6 |
| 20260506132417 | 63 | 191 | 7.8 | 13.9 | 0.00 | 0.00 | 0.00 | 81 | 1008.4 |
| 20260506131914 | 63 | 210 | 4.3 | 16.5 | 0.00 | 0.00 | 0.00 | 82 | 1008.2 |
| 20260506131411 | 62 | 232 | 4.3 | 6.1 | 0.00 | 0.00 | 0.00 | 83 | 1008.7 |
| 20260506130908 | 62 | 223 | 5.2 | 17.4 | 0.00 | 0.00 | 0.00 | 84 | 1008.6 |
| 20260506130404 | 62 | 191 | 3.5 | 13.0 | 0.00 | 0.00 | 0.00 | 85 | 1008.9 |
| 20260506125902 | 61 | 212 | 4.3 | 11.3 | 0.00 | 0.00 | 0.00 | 85 | 1009.0 |
| 20260506125400 | 61 | 155 | 4.3 | 12.2 | 0.00 | 0.00 | 0.00 | 86 | 1009.3 |
| 20260506124858 | 61 | 223 | 7.8 | 13.9 | 0.00 | 0.00 | 0.00 | 86 | 1009.0 |
| 20260506124355 | 60 | 219 | 4.3 | 12.2 | 0.00 | 0.00 | 0.00 | 87 | 1009.2 |
| 20260506123853 | 60 | 183 | 3.5 | 8.7 | 0.00 | 0.00 | 0.00 | 87 | 1009.2 |
| 20260506123351 | 60 | 201 | 2.6 | 7.0 | 0.00 | 0.00 | 0.00 | 88 | 1009.3 |
| 20260506122848 | 60 | 174 | 6.1 | 7.8 | 0.00 | 0.00 | 0.00 | 88 | 1009.4 |
| 20260506122344 | 59 | 210 | 3.5 | 7.8 | 0.00 | 0.00 | 0.00 | 89 | 1009.2 |
| 20260506121843 | 59 | 141 | 3.5 | 7.8 | 0.00 | 0.00 | 0.00 | 89 | 1009.3 |
| 20260506121340 | 59 | 166 | 3.5 | 5.2 | 0.00 | 0.00 | 0.00 | 89 | 1009.3 |
| 20260506120837 | 59 | 153 | 4.3 | 9.6 | 0.00 | 0.00 | 0.00 | 90 | 1009.4 |
| 20260506120334 | 59 | 147 | 4.3 | 9.6 | 0.00 | 0.00 | 0.00 | 90 | 1009.2 |
| 20260506115832 | 59 | 247 | 2.6 | 5.2 | 0.00 | 0.00 | 0.00 | 90 | 1009.2 |
| 20260506115330 | 59 | 173 | 4.3 | 7.0 | 0.00 | 0.00 | 0.00 | 90 | 1009.3 |
| 20260506114828 | 59 | 124 | 7.0 | 7.8 | 0.00 | 0.00 | 0.00 | 90 | 1009.2 |
| 20260506114325 | 59 | 193 | 6.1 | 8.7 | 0.00 | 0.00 | 0.00 | 91 | 1009.1 |
| 20260506113823 | 59 | 181 | 1.7 | 7.8 | 0.00 | 0.00 | 0.00 | 91 | 1009.0 |
| 20260506113321 | 58 | 183 | 4.3 | 11.3 | 0.00 | 0.00 | 0.00 | 91 | 1008.8 |
| 20260506112817 | 58 | 215 | 8.7 | 13.0 | 0.00 | 0.00 | 0.00 | 91 | 1009.1 |
| 20260506112315 | 58 | 187 | 2.6 | 7.8 | 0.00 | 0.00 | 0.00 | 92 | 1009.4 |
| 20260506111812 | 58 | 168 | 0.9 | 10.4 | 0.00 | 0.00 | 0.00 | 92 | 1009.3 |
| 20260506111310 | 57 | 170 | 4.3 | 9.6 | 0.00 | 0.00 | 0.00 | 93 | 1009.4 |
| 20260506110807 | 57 | 192 | 4.3 | 9.6 | 0.00 | 0.00 | 0.00 | 93 | 1009.3 |
| 20260506110304 | 57 | 154 | 1.7 | 7.0 | 0.00 | 0.00 | 0.00 | 94 | 1009.6 |
| 20260506105800 | 56 | 107 | 2.6 | 8.7 | 0.00 | 0.00 | 0.00 | 94 | 1009.3 |
| 20260506105257 | 56 | 113 | 2.6 | 7.8 | 0.00 | 0.00 | 0.00 | 94 | 1009.4 |
| 20260506104755 | 56 | 187 | 4.3 | 7.8 | 0.00 | 0.00 | 0.00 | 94 | 1009.3 |
| 20260506104253 | 56 | 217 | 2.6 | 9.6 | 0.00 | 0.00 | 0.00 | 94 | 1009.3 |
| 20260506103750 | 56 | 147 | 2.6 | 12.2 | 0.00 | 0.00 | 0.00 | 94 | 1009.2 |
| 20260506103247 | 56 | 169 | 7.0 | 9.6 | 0.00 | 0.00 | 0.00 | 94 | 1009.2 |
| 20260506102744 | 56 | 202 | 3.5 | 7.8 | 0.00 | 0.00 | 0.00 | 94 | 1009.1 |
| 20260506102242 | 56 | 155 | 4.3 | 8.7 | 0.00 | 0.00 | 0.00 | 94 | 1009.4 |
| 20260506101739 | 56 | 216 | 1.7 | 11.3 | 0.00 | 0.00 | 0.00 | 94 | 1009.4 |
| 20260506101235 | 56 | 217 | 2.6 | 5.2 | 0.00 | 0.00 | 0.00 | 94 | 1009.1 |
| 20260506100734 | 56 | 199 | 3.5 | 7.0 | 0.00 | 0.00 | 0.00 | 94 | 1009.1 |
| 20260506100231 | 56 | 101 | 4.3 | 5.2 | 0.00 | 0.00 | 0.00 | 94 | 1009.2 |
| 20260506095730 | 56 | 141 | 3.5 | 8.7 | 0.00 | 0.00 | 0.00 | 94 | 1009.2 |
| 20260506095226 | 56 | 131 | 1.7 | 5.2 | 0.00 | 0.00 | 0.00 | 94 | 1009.0 |
| 20260506094723 | 56 | 144 | 4.3 | 4.3 | 0.00 | 0.00 | 0.00 | 93 | 1009.1 |
| 20260506094221 | 56 | 183 | 1.7 | 9.6 | 0.00 | 0.00 | 0.00 | 93 | 1009.3 |
| 20260506093720 | 56 | 167 | 4.3 | 9.6 | 0.00 | 0.00 | 0.00 | 93 | 1009.1 |
| 20260506093216 | 56 | 176 | 3.5 | 7.0 | 0.00 | 0.00 | 0.00 | 93 | 1009.2 |
| 20260506092714 | 56 | 196 | 6.1 | 6.1 | 0.00 | 0.00 | 0.00 | 93 | 1009.1 |
| 20260506092212 | 56 | 178 | 7.0 | 7.0 | 0.00 | 0.00 | 0.00 | 93 | 1009.0 |
| 20260506091709 | 56 | 170 | 2.6 | 7.0 | 0.00 | 0.00 | 0.00 | 93 | 1009.2 |
| 20260506091206 | 56 | 216 | 2.6 | 7.8 | 0.00 | 0.00 | 0.00 | 93 | 1009.2 |
| 20260506090704 | 56 | 180 | 5.2 | 6.1 | 0.00 | 0.00 | 0.00 | 93 | 1009.0 |
| 20260506090201 | 56 | 186 | 4.3 | 7.8 | 0.00 | 0.00 | 0.00 | 92 | 1009.1 |
| 20260506085658 | 56 | 142 | 3.5 | 7.8 | 0.00 | 0.00 | 0.00 | 92 | 1009.3 |
| 20260506085153 | 56 | 122 | 2.6 | 5.2 | 0.00 | 0.00 | 0.00 | 92 | 1009.3 |
| 20260506084650 | 56 | 203 | 3.5 | 6.1 | 0.00 | 0.00 | 0.00 | 92 | 1009.3 |
| 20260506084147 | 56 | 201 | 3.5 | 9.6 | 0.00 | 0.00 | 0.00 | 92 | 1009.5 |
| 20260506083644 | 56 | 185 | 1.7 | 7.8 | 0.00 | 0.00 | 0.00 | 92 | 1009.1 |
| 20260506083142 | 56 | 212 | 8.7 | 12.2 | 0.00 | 0.00 | 0.00 | 92 | 1009.3 |
| 20260506082638 | 56 | 188 | 5.2 | 7.8 | 0.00 | 0.00 | 0.00 | 92 | 1009.3 |
| 20260506082134 | 56 | 206 | 1.7 | 2.6 | 0.00 | 0.00 | 0.00 | 92 | 1009.3 |
| 20260506081632 | 56 | 104 | 2.6 | 5.2 | 0.00 | 0.00 | 0.00 | 91 | 1009.0 |
| 20260506081130 | 56 | 77 | 1.7 | 3.5 | 0.00 | 0.00 | 0.00 | 91 | 1009.3 |
| 20260506080627 | 56 | 317 | 0.9 | 3.5 | 0.00 | 0.00 | 0.00 | 91 | 1009.4 |
| 20260506080123 | 56 | 132 | 3.5 | 6.1 | 0.00 | 0.00 | 0.00 | 91 | 1009.4 |
| 20260506073107 | 57 | 206 | 3.5 | 6.1 | 0.00 | 0.00 | 0.00 | 89 | 1009.3 |
| 20260506072604 | 57 | 202 | 4.3 | 12.2 | 0.00 | 0.00 | 0.00 | 89 | 1009.5 |
| 20260506072102 | 57 | 202 | 6.1 | 8.7 | 0.00 | 0.00 | 0.00 | 89 | 1009.2 |
| 20260506071559 | 57 | 191 | 8.7 | 9.6 | 0.00 | 0.00 | 0.00 | 89 | 1009.5 |
| 20260506071057 | 57 | 215 | 2.6 | 7.0 | 0.00 | 0.00 | 0.00 | 88 | 1009.3 |
| 20260506070554 | 57 | 180 | 6.1 | 9.6 | 0.00 | 0.00 | 0.00 | 88 | 1009.5 |
| 20260506062028 | 58 | 180 | 6.1 | 9.6 | 0.00 | 0.00 | 0.00 | 86 | 1009.2 |
| 20260506061523 | 58 | 190 | 2.6 | 8.7 | 0.00 | 0.00 | 0.00 | 86 | 1009.3 |
| 20260506061021 | 58 | 108 | 1.7 | 9.6 | 0.00 | 0.00 | 0.00 | 85 | 1009.5 |
| 20260506060520 | 58 | 194 | 5.2 | 7.8 | 0.00 | 0.00 | 0.00 | 85 | 1009.3 |
| 20260506050948 | 60 | 231 | 2.6 | 10.4 | 0.00 | 0.00 | 0.00 | 82 | 1009.6 |
| 20260506050446 | 60 | 236 | 5.2 | 13.9 | 0.00 | 0.00 | 0.00 | 81 | 1009.5 |
| 20260506044936 | 61 | 264 | 5.2 | 11.3 | 0.00 | 0.00 | 0.00 | 80 | 1009.7 |
| 20260506044435 | 61 | 228 | 4.3 | 9.6 | 0.00 | 0.00 | 0.00 | 80 | 1009.8 |
| 20260506043931 | 61 | 237 | 5.2 | 7.0 | 0.00 | 0.00 | 0.00 | 79 | 1009.7 |
| 20260506043429 | 61 | 238 | 6.1 | 13.9 | 0.00 | 0.00 | 0.00 | 79 | 1009.8 |
| 20260506042926 | 61 | 176 | 7.8 | 13.9 | 0.00 | 0.00 | 0.00 | 78 | 1009.7 |
| 20260506042426 | 61 | 205 | 3.5 | 7.8 | 0.00 | 0.00 | 0.00 | 78 | 1009.7 |
| 20260506041923 | 61 | 189 | 5.2 | 15.6 | 0.00 | 0.00 | 0.00 | 77 | 1009.8 |
| 20260506041421 | 61 | 223 | 5.2 | 14.8 | 0.00 | 0.00 | 0.00 | 77 | 1009.8 |
| 20260506040918 | 62 | 189 | 9.6 | 19.1 | 0.00 | 0.00 | 0.00 | 76 | 1009.7 |
| 20260506040415 | 62 | 220 | 4.3 | 17.4 | 0.00 | 0.00 | 0.00 | 76 | 1009.6 |
| 20260506035911 | 62 | 190 | 4.3 | 13.0 | 0.00 | 0.00 | 0.00 | 75 | 1009.8 |
| 20260506035409 | 61 | 197 | 4.3 | 12.2 | 0.00 | 0.00 | 0.00 | 75 | 1009.8 |
| 20260506034905 | 61 | 235 | 9.6 | 12.2 | 0.00 | 0.00 | 0.00 | 75 | 1009.9 |
| 20260506034403 | 61 | 245 | 4.3 | 15.6 | 0.00 | 0.00 | 0.00 | 74 | 1009.8 |
| 20260506033859 | 62 | 178 | 3.5 | 10.4 | 0.00 | 0.00 | 0.00 | 74 | 1009.6 |
| 20260506033357 | 62 | 221 | 2.6 | 13.0 | 0.00 | 0.00 | 0.00 | 74 | 1009.8 |
| 20260506032854 | 61 | 215 | 8.7 | 11.3 | 0.00 | 0.00 | 0.00 | 74 | 1009.9 |
| 20260506032350 | 62 | 151 | 3.5 | 13.0 | 0.00 | 0.00 | 0.00 | 73 | 1009.6 |
| 20260506031847 | 62 | 261 | 5.2 | 13.9 | 0.00 | 0.00 | 0.00 | 73 | 1009.6 |
| 20260506031345 | 62 | 195 | 13.9 | 13.9 | 0.00 | 0.00 | 0.00 | 73 | 1009.5 |
| 20260506030842 | 61 | 220 | 4.3 | 9.6 | 0.00 | 0.00 | 0.00 | 73 | 1009.7 |
| 20260506030340 | 62 | 217 | 4.3 | 11.3 | 0.00 | 0.00 | 0.00 | 73 | 1009.8 |
| 20260506025837 | 61 | 200 | 7.8 | 10.4 | 0.00 | 0.00 | 0.00 | 73 | 1009.6 |
| 20260506025333 | 61 | 188 | 5.2 | 14.8 | 0.00 | 0.00 | 0.00 | 73 | 1009.6 |
| 20260506024830 | 61 | 242 | 3.5 | 13.0 | 0.00 | 0.00 | 0.00 | 73 | 1009.7 |
| 20260506024327 | 61 | 207 | 3.5 | 9.6 | 0.00 | 0.00 | 0.00 | 73 | 1009.4 |
| 20260506023823 | 61 | 196 | 4.3 | 8.7 | 0.00 | 0.00 | 0.00 | 73 | 1009.5 |
| 20260506023320 | 61 | 185 | 7.0 | 13.9 | 0.00 | 0.00 | 0.00 | 73 | 1009.6 |
| 20260506022817 | 61 | 192 | 5.2 | 7.0 | 0.00 | 0.00 | 0.00 | 73 | 1009.6 |
| 20260506022315 | 61 | 177 | 3.5 | 11.3 | 0.00 | 0.00 | 0.00 | 72 | 1009.4 |
| 20260506021813 | 61 | 222 | 3.5 | 9.6 | 0.00 | 0.00 | 0.00 | 73 | 1009.6 |
| 20260506021309 | 61 | 254 | 2.6 | 5.2 | 0.00 | 0.00 | 0.00 | 73 | 1009.6 |
| 20260506020806 | 61 | 227 | 2.6 | 12.2 | 0.00 | 0.00 | 0.00 | 72 | 1009.5 |
| 20260506020304 | 61 | 189 | 3.5 | 8.7 | 0.00 | 0.00 | 0.00 | 72 | 1009.7 |
| 20260506015801 | 61 | 177 | 7.8 | 13.0 | 0.00 | 0.00 | 0.00 | 72 | 1009.5 |
| 20260506015258 | 61 | 226 | 5.2 | 12.2 | 0.00 | 0.00 | 0.00 | 72 | 1009.4 |
| 20260506014755 | 61 | 139 | 6.1 | 12.2 | 0.00 | 0.00 | 0.00 | 72 | 1009.4 |
| 20260506014252 | 61 | 185 | 7.8 | 10.4 | 0.00 | 0.00 | 0.00 | 72 | 1009.5 |
| 20260506013749 | 61 | 248 | 3.5 | 10.4 | 0.00 | 0.00 | 0.00 | 72 | 1009.6 |
| 20260506013246 | 61 | 232 | 0.9 | 4.3 | 0.00 | 0.00 | 0.00 | 71 | 1009.4 |
| 20260506012742 | 61 | 223 | 9.6 | 9.6 | 0.00 | 0.00 | 0.00 | 71 | 1009.3 |
| 20260506012239 | 62 | 173 | 1.7 | 8.7 | 0.00 | 0.00 | 0.00 | 70 | 1009.2 |
| 20260506011737 | 62 | 204 | 4.3 | 14.8 | 0.00 | 0.00 | 0.00 | 70 | 1009.4 |
| 20260506011233 | 62 | 220 | 2.6 | 6.1 | 0.00 | 0.00 | 0.00 | 70 | 1009.2 |
| 20260506010731 | 62 | 202 | 4.3 | 11.3 | 0.00 | 0.00 | 0.00 | 69 | 1008.9 |
| 20260506010228 | 62 | 226 | 5.2 | 9.6 | 0.00 | 0.00 | 0.00 | 68 | 1009.2 |
| 20260506005725 | 62 | 178 | 6.1 | 7.8 | 0.00 | 0.00 | 0.00 | 69 | 1009.0 |
| 20260506005222 | 62 | 233 | 6.1 | 6.1 | 0.00 | 0.00 | 0.00 | 68 | 1008.9 |
| 20260506004718 | 62 | 180 | 0.0 | 7.8 | 0.00 | 0.00 | 0.00 | 69 | 1009.0 |
| 20260506004216 | 63 | 225 | 2.6 | 13.9 | 0.00 | 0.00 | 0.00 | 68 | 1008.7 |
| 20260506003711 | 62 | 171 | 6.1 | 7.8 | 0.00 | 0.00 | 0.00 | 69 | 1008.9 |
| 20260506003208 | 62 | 197 | 3.5 | 9.6 | 0.00 | 0.00 | 0.00 | 69 | 1008.7 |
| 20260506002704 | 63 | 180 | 4.3 | 9.6 | 0.00 | 0.00 | 0.00 | 69 | 1008.7 |
| 20260506002200 | 63 | 199 | 6.1 | 14.8 | 0.00 | 0.00 | 0.00 | 68 | 1008.6 |
| 20260506001656 | 63 | 230 | 3.5 | 14.8 | 0.00 | 0.00 | 0.00 | 68 | 1008.5 |
| 20260506001154 | 63 | 194 | 4.3 | 11.3 | 0.00 | 0.00 | 0.00 | 67 | 1008.4 |
| 20260506000651 | 63 | 250 | 3.5 | 14.8 | 0.00 | 0.00 | 0.00 | 67 | 1008.3 |
| 20260506000148 | 64 | 211 | 6.1 | 9.6 | 0.00 | 0.00 | 0.00 | 67 | 1008.1 |
| 20260505235646 | 64 | 225 | 2.6 | 13.0 | 0.00 | 0.00 | 0.00 | 67 | 1008.0 |
| 20260505235143 | 64 | 223 | 2.6 | 13.0 | 0.00 | 0.00 | 0.00 | 67 | 1008.1 |
| 20260505234640 | 64 | 190 | 4.3 | 11.3 | 0.00 | 0.00 | 0.00 | 66 | 1008.0 |
| 20260505234137 | 65 | 177 | 5.2 | 9.6 | 0.00 | 0.00 | 0.00 | 66 | 1007.8 |
| 20260505233634 | 65 | 198 | 8.7 | 15.6 | 0.00 | 0.00 | 0.00 | 65 | 1007.8 |
| 20260505233131 | 65 | 226 | 3.5 | 8.7 | 0.00 | 0.00 | 0.00 | 64 | 1007.6 |
| 20260505232629 | 65 | 161 | 6.1 | 13.0 | 0.00 | 0.00 | 0.00 | 64 | 1007.6 |
| 20260505232126 | 66 | 188 | 6.1 | 12.2 | 0.00 | 0.00 | 0.00 | 63 | 1007.8 |
| 20260505231623 | 66 | 172 | 4.3 | 13.9 | 0.00 | 0.00 | 0.00 | 63 | 1007.4 |
| 20260505231122 | 66 | 220 | 10.4 | 16.5 | 0.00 | 0.00 | 0.00 | 62 | 1007.5 |
| 20260505230620 | 67 | 163 | 4.3 | 9.6 | 0.00 | 0.00 | 0.00 | 62 | 1007.5 |
| 20260505230115 | 67 | 205 | 3.5 | 13.9 | 0.00 | 0.00 | 0.00 | 62 | 1007.6 |
| 20260505225612 | 67 | 206 | 4.3 | 11.3 | 0.00 | 0.00 | 0.00 | 61 | 1007.2 |
| 20260505225108 | 67 | 216 | 2.6 | 15.6 | 0.00 | 0.00 | 0.00 | 61 | 1007.3 |
| 20260505224605 | 67 | 174 | 7.0 | 14.8 | 0.00 | 0.00 | 0.00 | 61 | 1007.2 |
| 20260505224102 | 68 | 208 | 4.3 | 17.4 | 0.00 | 0.00 | 0.00 | 61 | 1007.1 |
| 20260505223559 | 68 | 190 | 3.5 | 7.0 | 0.00 | 0.00 | 0.00 | 60 | 1007.1 |
| 20260505223055 | 68 | 222 | 10.4 | 13.0 | 0.00 | 0.00 | 0.00 | 60 | 1007.1 |
| 20260505222552 | 68 | 255 | 5.2 | 19.1 | 0.00 | 0.00 | 0.00 | 59 | 1007.0 |
| 20260505222048 | 69 | 220 | 6.1 | 13.9 | 0.00 | 0.00 | 0.00 | 59 | 1007.1 |
| 20260505221546 | 69 | 209 | 6.1 | 14.8 | 0.00 | 0.00 | 0.00 | 58 | 1007.2 |
| 20260505221042 | 69 | 181 | 6.1 | 13.0 | 0.00 | 0.00 | 0.00 | 57 | 1007.1 |
| 20260505220539 | 70 | 154 | 7.8 | 13.0 | 0.00 | 0.00 | 0.00 | 57 | 1007.1 |
| 20260505220037 | 70 | 235 | 3.5 | 13.0 | 0.00 | 0.00 | 0.00 | 57 | 1007.4 |
| 20260505215535 | 70 | 128 | 6.1 | 11.3 | 0.00 | 0.00 | 0.00 | 56 | 1007.4 |
| 20260505215032 | 70 | 240 | 7.8 | 13.9 | 0.00 | 0.00 | 0.00 | 56 | 1007.3 |
| 20260505214530 | 71 | 201 | 5.2 | 14.8 | 0.00 | 0.00 | 0.00 | 55 | 1007.2 |
| 20260505214027 | 71 | 227 | 2.6 | 9.6 | 0.00 | 0.00 | 0.00 | 55 | 1007.2 |
| 20260505213525 | 72 | 214 | 6.1 | 6.1 | 0.00 | 0.00 | 0.00 | 55 | 1007.2 |
| 20260505213021 | 72 | 179 | 4.3 | 8.7 | 0.00 | 0.00 | 0.00 | 55 | 1007.1 |
| 20260505212517 | 71 | 178 | 3.5 | 12.2 | 0.00 | 0.00 | 0.00 | 55 | 1007.2 |